This demonstration page uses our WeatherBlox Daily Observations layout. Learn more.

39.29038, -76.61219

Hourly Observations for December 30, 2019

Temp ( °F °C ) Dew Point ( °F °C ) Humidity (%) Winds ( mph kmh ) Pressure ( in mb ) Visibility ( mi km ) Precip ( " mm )
12:54 am 00:54 undefined 48 8.9 46 7.8 93 93 undefined N/A 29.81 1010 N/A 0 0
1:54 am 01:54 undefined 48 8.9 47 8.3 96 96 undefined N/A 29.78 1008 N/A 0.01 0.254
2:54 am 02:54 undefined 48 8.9 47 8.3 96 96 undefined N/A 29.75 1007 N/A 0.04 1.016
3:54 am 03:54 undefined 49 9.4 47 8.3 93 93 undefined N/A 29.71 1006 N/A 0.02 0.508
4:54 am 04:54 undefined 50 10 49 9.4 96 96 undefined N/A 29.7 1006 N/A 0 0
5:54 am 05:54 undefined 51 10.6 50 10 96 96 undefined N/A 29.67 1005 N/A 0 0
6:54 am 06:54 undefined 50 10 50 10 100 100 undefined N/A 29.65 1004 N/A 0 0
7:54 am 07:54 undefined 52 11.1 51 10.6 97 97 undefined N/A 29.64 1004 N/A 0 0
8:54 am 08:54 undefined 53 11.7 53 11.7 100 100 undefined N/A 29.65 1004 N/A 0 0
9:54 am 09:54 undefined 56 13.3 56 13.3 100 100 undefined N/A 29.63 1004 N/A 0 0
10:54 am 10:54 undefined 58 14.4 58 14.4 100 100 undefined N/A 29.61 1003 N/A 0 0
11:54 am 11:54 undefined 57 13.9 57 13.9 100 100 undefined N/A 29.59 1002 N/A 0.07 1.778
12:54 pm 12:54 undefined 58 14.4 56 13.3 93 93 undefined N/A 29.6 1002 N/A 0.06 1.524
1:54 pm 13:54 undefined 59 15 56 13.3 90 90 undefined N/A 29.61 1003 N/A 0.03 0.762
2:54 pm 14:54 undefined 57 13.9 54 12.2 90 90 undefined N/A 29.6 1002 N/A 0 0
3:54 pm 15:54 undefined 54 12.2 49 9.4 83 83 undefined N/A 29.61 1003 N/A 0 0
4:54 pm 16:54 undefined 50 10 46 7.8 86 86 undefined N/A 29.64 1004 N/A 0 0
5:54 pm 17:54 undefined 49 9.4 44 6.7 83 83 undefined N/A 29.68 1005 N/A 0 0
6:54 pm 18:54 undefined 48 8.9 42 5.6 80 80 undefined N/A 29.7 1006 N/A 0 0
7:54 pm 19:54 undefined 47 8.3 42 5.6 83 83 undefined N/A 29.73 1007 N/A 0 0
8:54 pm 20:54 undefined 45 7.2 40 4.4 83 83 undefined N/A 29.72 1007 N/A 0 0
9:54 pm 21:54 undefined 44 6.7 40 4.4 85 85 undefined N/A 29.74 1007 N/A 0 0
10:54 pm 22:54 undefined 44 6.7 40 4.4 85 85 undefined N/A 29.74 1007 N/A 0 0
11:54 pm 23:54 undefined 44 6.7 39 3.9 83 83 undefined N/A 29.72 1007 N/A 0 0

Powered by AerisWeather